Wind_Speed
34 34 34 35 34 34 33 32 31 30 30 30 29 27 26 25 24 23 23 22 22 21 20 19 19 18 17 16 16 15 14 13 12 11 11 11 11 11 11 11 10 9
35 34 34 34 34 34 33 33 32 31 30 29 28 27 27 26 24 24 23 22 22 21 20 21 20 19 18 17 17 16 15 14 13 12 12 12 12 12 12 12 11 11
36 35 35 34 34 33 33 33 32 31 30 29 29 28 27 27 26 25 24 23 22 21 21 22 21 20 20 19 18 17 16 15 14 12 12 13 13 13 13 13 12 12
38 37 36 35 34 33 32 33 33 32 31 30 30 28 27 27 27 27 26 25 24 22 22 22 22 21 21 20 19 19 18 17 15 14 13 14 14 14 13 13 13 13
40 39 38 37 36 34 34 33 33 32 32 32 30 29 28 27 27 27 27 27 26 25 24 24 23 23 22 21 21 20 20 19 17 16 15 15 15 15 15 14 13 13
43 41 40 40 38 37 36 35 34 33 33 32 32 31 30 28 28 28 27 27 27 26 26 26 25 24 23 23 22 22 21 20 19 17 16 16 15 16 16 15 15 15
44 43 42 42 41 40 39 38 36 35 33 33 33 33 32 31 30 29 29 28 28 28 28 28 27 26 25 24 24 23 23 22 21 19 18 17 16 16 17 17 17 16
44 44 43 43 43 43 42 40 38 36 34 34 34 34 33 33 32 32 31 30 30 30 30 29 29 28 27 26 26 25 25 24 23 22 20 19 18 17 17 17 18 18
44 43 43 42 43 43 43 42 40 38 36 35 35 34 34 35 34 34 34 33 32 32 31 31 31 30 29 29 28 27 26 26 25 23 22 21 20 18 17 17 18 19
45 44 43 43 43 43 43 42 41 39 37 36 35 35 35 36 35 36 36 36 35 35 34 34 33 32 31 30 30 29 28 27 26 24 23 22 21 20 18 18 19 20
46 45 45 45 44 44 43 42 41 40 39 38 37 36 36 36 36 37 38 38 38 38 37 36 35 34 33 32 31 31 29 28 27 25 24 23 22 21 20 20 19 20
48 47 47 46 45 45 43 42 42 42 40 39 38 37 37 36 37 38 39 40 39 39 39 38 37 37 36 34 33 32 31 29 28 27 26 25 24 23 23 22 21 21
49 48 48 47 46 45 44 43 42 42 42 41 40 39 38 38 37 38 40 40 40 40 40 39 39 39 38 37 36 34 33 31 30 29 28 27 26 25 24 24 23 22
50 48 48 48 47 46 44 44 43 43 43 42 42 41 40 39 38 38 39 40 40 41 42 41 40 41 41 40 38 37 35 33 32 31 30 29 27 26 26 26 25 25
49 49 49 49 48 48 46 45 45 44 44 44 43 42 42 41 40 39 39 40 40 41 43 43 43 43 43 42 40 38 37 35 35 33 32 30 28 27 27 28 27 27
49 50 50 50 49 49 47 46 46 45 45 45 44 43 43 42 41 41 42 41 40 41 42 44 45 45 44 43 41 39 37 36 36 35 34 32 30 29 29 29 29 30
50 50 50 50 49 48 48 47 46 45 45 45 45 44 43 43 42 43 43 43 42 42 43 45 46 46 45 43 42 40 38 37 37 36 35 34 32 30 30 29 30 31
50 50 50 49 49 48 48 47 46 46 46 46 46 45 44 44 44 44 44 44 44 43 44 45 46 46 45 44 42 41 39 38 38 37 36 35 33 31 31 30 31 31
49 50 49 49 49 48 48 47 46 47 47 47 46 46 46 46 45 45 45 45 45 45 45 45 45 45 45 43 42 41 40 38 38 38 37 37 35 32 31 31 31 31
49 49 49 49 49 49 48 48 47 47 47 47 47 47 47 47 46 46 46 46 46 46 46 45 45 45 45 43 42 41 40 39 38 38 37 38 36 33 32 31 31 32
48 49 49 49 49 49 49 49 48 48 48 48 48 48 48 47 46 46 46 46 46 47 47 46 45 45 45 43 42 41 40 38 38 38 38 38 36 34 32 31 32 32
49 49 49 49 49 50 50 50 49 49 48 48 49 49 48 47 47 47 48 47 46 47 47 47 46 46 46 44 41 40 39 38 38 38 38 38 36 34 32 31 32 33
47 48 49 49 49 50 50 50 50 49 49 49 49 49 50 49 48 48 48 48 48 49 48 48 47 47 47 45 42 40 39 39 38 39 39 38 36 34 32 32 33 34
45 46 47 48 48 49 50 50 50 50 50 49 48 49 50 50 49 49 49 49 49 49 49 48 48 48 47 45 42 40 40 40 39 39 39 38 37 35 33 33 34 35
44 46 46 47 48 48 49 50 50 50 50 50 49 50 51 51 51 52 51 50 51 51 50 49 48 47 47 47 44 41 41 41 40 40 40 39 38 36 34 34 35 37
44 44 45 45 46 46 47 47 47 48 49 49 49 51 51 52 53 53 53 53 51 50 50 50 49 49 49 48 46 44 42 41 42 42 41 40 38 37 36 36 37 38
Wind_Direction
227 228 230 231 232 233 234 234 234 233 231 229 229 231 233 235 235 236 238 240 242 243 243 244 245 246 248 249 249 250 250 252 253 252 251 247 242 243 247 247 244 243
227 228 229 231 233 234 235 235 235 234 234 231 229 231 234 237 238 238 239 241 243 244 244 244 244 244 245 246 246 247 248 248 249 248 247 247 244 243 247 249 248 246
227 228 229 230 232 233 234 234 234 234 235 234 231 231 234 236 238 239 240 241 243 245 245 244 243 242 243 243 243 244 245 246 247 247 247 247 245 244 247 250 251 250
227 228 229 231 232 233 234 234 234 233 234 234 231 231 233 235 237 239 240 241 242 244 245 244 242 241 241 241 240 241 243 244 245 245 245 245 244 243 247 250 252 253
228 228 229 231 232 233 234 234 234 233 233 233 231 230 231 233 235 237 238 239 240 242 243 243 241 239 239 239 238 237 240 242 244 244 245 246 245 243 244 247 251 254
230 230 230 231 232 233 234 235 234 233 232 231 231 230 231 232 234 236 237 238 239 239 240 241 240 238 238 239 237 235 237 240 242 244 246 248 248 246 244 244 247 251
232 232 232 232 232 233 234 235 235 234 233 232 231 231 231 232 233 235 236 237 238 238 239 239 239 238 238 239 238 236 236 238 241 242 245 247 249 249 247 245 245 247
234 234 234 233 233 233 234 235 235 236 235 234 233 232 232 232 233 234 235 236 237 238 239 239 239 239 239 240 240 239 237 237 239 242 244 247 248 250 250 249 247 246
235 235 235 235 234 234 234 235 236 236 236 235 235 234 233 232 232 234 235 235 236 238 239 239 239 239 239 240 241 240 239 238 239 240 244 247 249 250 251 252 251 248
235 236 236 236 235 236 235 235 236 236 236 236 236 235 234 233 233 234 236 236 236 237 238 239 239 240 240 240 240 241 240 238 238 239 242 245 248 250 251 251 251 250
236 236 237 237 236 237 237 236 236 236 237 237 236 236 236 235 234 234 236 236 236 236 237 238 239 239 240 240 240 241 240 239 238 237 239 242 246 248 249 250 250 250
236 237 237 237 237 238 237 238 237 237 238 237 237 237 237 236 235 236 237 237 236 236 237 238 239 240 241 241 241 241 241 241 239 238 238 239 242 245 247 248 248 248
237 237 238 238 238 239 239 239 239 239 239 239 238 238 238 237 237 237 238 238 238 238 237 237 238 240 241 242 242 242 242 242 241 239 238 238 238 241 244 246 248 248
237 238 238 239 239 240 240 240 240 240 240 240 240 240 239 239 239 240 240 240 240 239 239 238 238 239 241 241 241 242 242 242 242 241 239 238 237 238 241 244 246 247
238 238 239 239 239 240 240 240 241 241 241 242 242 242 241 241 241 241 242 243 242 241 241 240 239 239 240 240 241 241 241 242 242 241 240 239 237 237 239 241 244 245
237 237 238 238 239 240 241 241 241 241 242 242 243 243 243 242 242 242 243 244 243 243 242 242 241 240 239 240 241 241 242 242 242 242 241 239 237 236 238 240 242 244
236 236 237 238 238 239 240 241 241 242 242 242 243 243 243 243 242 242 243 244 245 244 244 243 242 241 240 240 240 241 241 242 242 242 242 240 238 237 238 240 242 243
235 236 237 238 239 239 240 240 241 241 242 242 242 242 243 243 242 243 243 244 245 246 246 245 244 243 242 241 241 241 241 242 242 242 242 242 239 237 237 239 241 243
235 236 237 239 240 240 240 240 240 241 241 242 242 243 243 243 243 243 243 244 245 246 246 247 246 245 244 242 241 240 240 241 242 242 242 242 241 237 237 238 241 243
236 237 239 240 240 240 239 240 240 241 241 242 242 243 243 243 243 243 243 244 245 246 247 248 248 247 246 243 241 240 239 240 241 242 243 243 243 239 237 237 240 243
236 238 239 240 240 239 240 240 241 241 242 241 241 242 243 244 244 244 244 244 245 246 247 248 249 249 247 244 242 240 239 239 240 241 242 242 243 241 237 236 238 242
236 238 238 239 239 239 239 240 241 242 242 241 242 242 243 244 244 244 245 245 245 246 248 248 249 249 248 245 242 239 238 238 238 239 240 240 241 240 238 236 237 239
238 238 239 240 239 240 241 241 243 243 243 242 242 242 243 243 243 243 244 245 245 245 246 247 248 249 249 247 243 240 238 236 235 236 238 238 239 238 237 236 236 238
241 241 241 240 241 242 243 244 244 244 244 244 243 243 244 244 244 244 244 244 244 245 245 246 247 249 251 249 246 242 238 235 234 234 235 236 237 237 237 237 237 238
243 242 242 242 243 245 245 245 246 246 247 247 246 245 245 245 246 246 246 245 245 245 246 246 245 246 250 250 247 244 240 237 234 233 233 234 235 236 236 236 237 239
241 241 242 244 246 248 248 248 248 248 248 249 248 247 246 246 246 247 248 248 246 245 246 246 245 245 248 250 248 245 241 238 235 233 231 231 233 235 236 235 236 239
Height
1530 1533 1535 1537 1539 1541 1543 1545 1547 1550 1552 1554 1556 1557 1559 1560 1562 1564 1565 1566 1567 1568 1569 1570 1571 1572 1573 1573 1574 1575 1576 1576 1577 1577 1578 1578 1579 1580 1581 1582 1583 1584
1527 1530 1532 1533 1535 1538 1540 1542 1544 1546 1549 1551 1553 1555 1556 1558 1560 1561 1563 1564 1565 1566 1567 1568 1569 1570 1571 1571 1572 1573 1574 1575 1575 1576 1577 1577 1578 1579 1580 1581 1581 1582
1524 1526 1528 1530 1532 1534 1536 1539 1541 1543 1546 1548 1550 1552 1554 1555 1557 1558 1560 1561 1562 1563 1564 1565 1566 1567 1568 1569 1570 1571 1572 1573 1574 1574 1575 1576 1576 1577 1578 1579 1580 1581
1521 1523 1525 1527 1529 1531 1534 1536 1537 1540 1542 1544 1546 1549 1550 1552 1554 1555 1557 1558 1559 1561 1561 1562 1564 1565 1566 1566 1567 1568 1569 1571 1571 1572 1573 1574 1575 1575 1576 1577 1578 1579
1517 1519 1522 1524 1526 1528 1530 1532 1534 1537 1539 1541 1543 1545 1547 1549 1551 1552 1553 1555 1556 1557 1558 1559 1561 1562 1563 1564 1564 1566 1567 1568 1569 1570 1571 1572 1573 1573 1574 1575 1576 1577
1513 1516 1519 1521 1523 1525 1527 1529 1531 1533 1536 1538 1540 1542 1543 1545 1547 1548 1550 1551 1553 1554 1555 1556 1557 1559 1560 1561 1562 1563 1564 1565 1566 1567 1568 1569 1570 1571 1572 1573 1574 1575
1509 1511 1514 1517 1519 1521 1523 1525 1528 1530 1532 1535 1536 1538 1540 1542 1543 1545 1546 1548 1549 1550 1551 1553 1554 1555 1557 1558 1559 1560 1561 1562 1563 1564 1566 1567 1568 1569 1570 1571 1571 1572
1504 1507 1510 1513 1515 1517 1519 1522 1524 1526 1529 1531 1532 1534 1536 1538 1539 1541 1542 1544 1546 1547 1548 1549 1550 1552 1554 1555 1556 1557 1558 1559 1560 1561 1563 1564 1565 1566 1567 1568 1569 1569
1500 1502 1505 1508 1510 1512 1515 1517 1520 1522 1524 1526 1528 1530 1532 1533 1535 1537 1538 1540 1542 1543 1544 1545 1547 1548 1550 1551 1552 1553 1555 1556 1557 1559 1560 1561 1562 1563 1565 1565 1566 1567
1495 1497 1500 1503 1505 1507 1510 1513 1515 1517 1519 1521 1524 1526 1527 1529 1531 1532 1534 1535 1537 1538 1540 1541 1543 1544 1546 1547 1549 1550 1551 1553 1554 1556 1557 1558 1559 1560 1562 1562 1563 1563
1490 1492 1495 1497 1500 1503 1505 1508 1511 1513 1515 1517 1519 1521 1523 1525 1526 1528 1529 1530 1532 1534 1535 1537 1538 1540 1542 1544 1545 1546 1548 1550 1551 1553 1554 1555 1556 1557 1558 1559 1559 1560
1484 1487 1489 1492 1495 1498 1501 1504 1506 1508 1510 1512 1514 1516 1518 1520 1522 1523 1524 1525 1527 1529 1531 1533 1534 1536 1538 1540 1542 1543 1545 1546 1548 1550 1551 1552 1553 1554 1554 1555 1555 1556
1479 1482 1484 1487 1490 1493 1496 1499 1501 1503 1505 1507 1509 1511 1513 1515 1517 1518 1519 1521 1523 1525 1526 1529 1530 1532 1533 1535 1538 1539 1541 1543 1544 1546 1547 1548 1550 1550 1551 1551 1552 1553
1473 1477 1480 1483 1486 1488 1491 1494 1496 1498 1500 1502 1504 1506 1508 1511 1513 1514 1515 1517 1519 1520 1522 1524 1526 1527 1528 1530 1533 1535 1537 1539 1540 1542 1543 1545 1546 1547 1547 1548 1549 1549
1469 1472 1475 1478 1481 1483 1486 1489 1491 1493 1495 1497 1499 1501 1504 1506 1508 1510 1511 1512 1514 1516 1517 1519 1520 1521 1523 1525 1528 1530 1533 1535 1536 1538 1539 1541 1542 1543 1544 1544 1545 1545
1465 1467 1470 1473 1476 1478 1481 1484 1486 1489 1490 1492 1494 1496 1499 1501 1503 1505 1506 1507 1509 1511 1512 1513 1514 1516 1518 1521 1523 1526 1529 1531 1532 1533 1535 1537 1539 1540 1540 1540 1541 1541
1460 1462 1465 1467 1470 1473 1476 1478 1481 1483 1485 1487 1489 1491 1493 1496 1498 1499 1501 1503 1504 1506 1507 1507 1508 1510 1513 1516 1519 1521 1524 1526 1528 1529 1531 1533 1534 1535 1536 1536 1536 1537
1455 1458 1460 1462 1465 1468 1470 1473 1476 1478 1479 1481 1483 1485 1488 1490 1492 1494 1496 1498 1499 1500 1501 1502 1503 1505 1509 1512 1514 1517 1520 1522 1524 1525 1526 1528 1530 1531 1532 1532 1532 1533
1451 1453 1455 1457 1460 1462 1465 1468 1471 1472 1473 1475 1478 1480 1482 1484 1486 1488 1490 1492 1493 1494 1496 1497 1498 1501 1504 1507 1510 1512 1515 1517 1519 1521 1522 1523 1525 1527 1528 1528 1529 1529
1446 1448 1450 1452 1454 1457 1460 1462 1465 1466 1468 1471 1473 1475 1477 1478 1480 1483 1484 1486 1487 1489 1491 1492 1493 1495 1498 1501 1505 1507 1510 1513 1515 1517 1518 1519 1520 1523 1524 1525 1525 1526
1441 1443 1445 1447 1450 1453 1455 1457 1459 1461 1463 1466 1468 1469 1471 1472 1475 1477 1478 1480 1482 1484 1485 1486 1488 1490 1492 1495 1499 1502 1505 1508 1510 1512 1513 1514 1516 1518 1520 1521 1522 1522
1436 1439 1441 1443 1446 1448 1450 1452 1454 1456 1458 1460 1463 1464 1466 1467 1469 1471 1472 1474 1477 1479 1480 1481 1482 1484 1485 1489 1493 1497 1500 1503 1505 1506 1508 1509 1511 1513 1515 1517 1517 1518
1432 1435 1437 1439 1442 1444 1445 1447 1449 1450 1453 1455 1457 1459 1460 1461 1463 1464 1466 1468 1471 1472 1473 1475 1477 1478 1479 1483 1487 1491 1495 1497 1499 1501 1502 1503 1506 1508 1510 1512 1512 1513
1428 1430 1432 1435 1436 1438 1439 1442 1444 1446 1448 1450 1452 1454 1454 1456 1457 1459 1461 1462 1464 1465 1466 1469 1471 1472 1474 1477 1481 1485 1489 1491 1493 1496 1497 1498 1500 1503 1505 1506 1507 1508
1423 1426 1429 1431 1432 1433 1435 1438 1440 1442 1444 1446 1448 1449 1450 1451 1453 1455 1456 1456 1458 1460 1461 1464 1466 1467 1469 1471 1475 1479 1482 1485 1488 1490 1491 1493 1495 1497 1499 1501 1501 1502
1420 1423 1425 1426 1427 1429 1431 1433 1436 1438 1440 1441 1443 1444 1446 1447 1449 1450 1450 1451 1454 1456 1457 1459 1461 1462 1463 1465 1469 1472 1475 1479 1482 1483 1485 1488 1489 1491 1493 1494 1495 1496